Satellite-Ground Cal/Val Region Overpasses Predictions

Prediction of Satellite NPP Overpassing Cal/Val Region: PacNW

Region Location: (Latitude: 10.00, Longitude: 139.50) to (Latitude: 22.70, Longitude: 165.60).

Table of predicted overpasses for the next 14.0 days since TLE Epoch: 12/25/2016
Interval Starting Time Starting Location Ending Time Ending Location
1 12/26/2016 02:33:31 ( 10.02, 161.36) 12/26/2016 02:37:06 ( 22.64, 158.36)
2 12/26/2016 15:05:25 ( 22.65, 158.58) 12/26/2016 15:09:00 ( 10.03, 155.58)
3 12/27/2016 02:15:08 ( 12.29, 165.59) 12/27/2016 02:18:05 ( 22.68, 163.11)
4 12/27/2016 03:55:59 ( 10.01, 140.74) 12/27/2016 03:57:30 ( 15.36, 139.51)
5 12/27/2016 14:46:22 ( 22.67, 163.34) 12/27/2016 14:49:57 ( 10.04, 160.34)
6 12/28/2016 03:36:57 ( 10.05, 145.49) 12/28/2016 03:40:32 ( 22.67, 142.49)
7 12/28/2016 14:30:19 ( 12.18, 165.59) 12/28/2016 14:30:56 ( 10.00, 165.09)
8 12/28/2016 16:08:50 ( 22.68, 142.73) 12/28/2016 16:12:25 ( 10.06, 139.73)
9 12/29/2016 03:17:55 ( 10.03, 150.25) 12/29/2016 03:21:30 ( 22.66, 147.25)
10 12/29/2016 15:49:47 ( 22.69, 147.49) 12/29/2016 15:53:23 ( 10.01, 144.47)
11 12/30/2016 02:58:52 ( 10.02, 155.02) 12/30/2016 03:02:28 ( 22.70, 152.00)
12 12/30/2016 15:30:46 ( 22.65, 152.24) 12/30/2016 15:34:21 ( 10.03, 149.24)
13 12/31/2016 02:39:50 ( 10.00, 159.78) 12/31/2016 02:43:26 ( 22.68, 156.76)
14 12/31/2016 15:11:44 ( 22.67, 157.00) 12/31/2016 15:15:19 ( 10.05, 154.00)
15 01/01/2017 02:20:48 ( 10.04, 164.53) 01/01/2017 02:24:23 ( 22.67, 161.53)
16 01/01/2017 14:52:41 ( 22.68, 161.76) 01/01/2017 14:56:17 ( 10.00, 158.75)
17 01/02/2017 03:43:16 ( 10.04, 143.91) 01/02/2017 03:46:51 ( 22.66, 140.91)
18 01/02/2017 14:34:43 ( 18.95, 165.60) 01/02/2017 14:37:15 ( 10.02, 163.51)
19 01/02/2017 16:15:09 ( 22.69, 141.15) 01/02/2017 16:17:04 ( 15.95, 139.51)
20 01/03/2017 03:24:13 ( 10.02, 148.67) 01/03/2017 03:27:48 ( 22.64, 145.67)
21 01/03/2017 15:56:07 ( 22.65, 145.89) 01/03/2017 15:59:42 ( 10.03, 142.89)
22 01/04/2017 03:05:11 ( 10.00, 153.43) 01/04/2017 03:08:47 ( 22.69, 150.42)
23
